DW3588 Weather Reports


time (UTC)temp
C
wind
direction
speed
KPH
gust
KPH
rain 1hr
cm
rain 24hr
cm
rain mn
cm
humidity
%
barometer
mb
20260506180121 22 22 4.8 8.0 0.00 0.00 0.00 55 1019.7
20260506175621 22 325 3.2 9.7 0.00 0.00 0.00 56 1019.7
20260506175121 21 355 3.2 9.7 0.00 0.00 0.00 57 1019.7
20260506175112 21 50 3.2 9.7 0.00 0.00 0.00 59 1019.7
20260506174121 21 60 4.8 11.3 0.00 0.00 0.00 59 1019.7
20260506173619 20 48 4.8 11.3 0.00 0.00 0.00 60 1019.7
20260506173117 20 31 3.2 9.7 0.00 0.00 0.00 61 1019.7
20260506172617 20 21 3.2 14.5 0.00 0.00 0.00 62 1019.7
20260506172115 20 332 3.2 14.5 0.00 0.00 0.00 61 1019.8
20260506171836 20 199 1.6 8.0 0.00 0.00 0.00 62 1019.8
20260506171335 19 318 3.2 8.0 0.00 0.00 0.00 62 1019.8
20260506170829 19 343 3.2 8.0 0.00 0.00 0.00 63 1019.8
20260506170108 19 5 3.2 8.0 0.00 0.00 0.00 62 1019.8
20260506165605 19 355 3.2 9.7 0.00 0.00 0.00 63 1019.7
20260506165327 18 16 1.6 9.7 0.00 0.00 0.00 63 1019.7
20260506164807 18 328 3.2 6.4 0.00 0.00 0.00 65 1019.8
20260506164304 18 330 4.8 8.0 0.00 0.00 0.00 65 1019.8
20260506163533 18 313 3.2 16.1 0.00 0.00 0.00 66 1019.8
20260506163033 18 311 1.6 16.1 0.00 0.00 0.00 66 1019.8
20260506162533 17 233 1.6 6.4 0.00 0.00 0.00 66 1019.8
20260506162032 17 233 1.6 6.4 0.00 0.00 0.00 68 1019.8
20260506161752 16 311 1.6 8.0 0.00 0.00 0.00 70 1019.8
20260506161030 16 311 3.2 8.0 0.00 0.00 0.00 71 1019.8
20260506160527 16 286 1.6 4.8 0.00 0.00 0.00 72 1019.8
20260506160025 16 240 1.6 4.8 0.00 0.00 0.00 73 1019.8
20260506155522 16 221 1.6 4.8 0.00 0.00 0.00 74 1019.9
20260506155021 15 221 1.6 4.8 0.00 0.00 0.00 74 1019.9
20260506154518 15 213 1.6 6.4 0.00 0.00 0.00 75 1019.9
20260506154016 15 211 1.6 6.4 0.00 0.00 0.00 76 1019.9
20260506153515 15 211 1.6 3.2 0.00 0.00 0.00 76 1019.9
20260506153013 15 211 1.6 4.8 0.00 0.00 0.00 77 1020.0
20260506152513 15 211 1.6 4.8 0.00 0.00 0.00 77 1020.0
20260506152012 15 211 1.6 3.2 0.00 0.00 0.00 78 1020.0
20260506151511 14 211 1.6 4.8 0.00 0.00 0.00 78 1020.0
20260506151009 14 211 1.6 4.8 0.00 0.00 0.00 78 1019.9
20260506150507 14 212 1.6 6.4 0.00 0.00 0.00 78 1019.9
20260506150005 14 212 1.6 6.4 0.00 0.00 0.00 79 1020.0
20260506145504 14 215 3.2 4.8 0.00 0.00 0.00 79 1019.9
20260506145002 14 217 1.6 4.8 0.00 0.00 0.00 79 1019.9
20260506144501 14 219 1.6 4.8 0.00 0.00 0.00 79 1019.9
20260506144001 13 219 1.6 4.8 0.00 0.00 0.00 79 1019.8
20260506143459 13 220 1.6 6.4 0.00 0.00 0.00 80 1019.8
20260506142957 13 221 1.6 6.4 0.00 0.00 0.00 79 1019.8
20260506142938 13 225 1.6 6.4 0.00 0.00 0.00 79 1019.7
20260506141955 13 225 3.2 8.0 0.00 0.00 0.00 79 1019.7
20260506141454 13 223 3.2 8.0 0.00 0.00 0.00 79 1019.6
20260506140941 13 223 3.2 9.7 0.00 0.00 0.00 79 1019.5
20260506140659 13 229 3.2 9.7 0.00 0.00 0.00 79 1019.5
20260506135938 13 230 3.2 6.4 0.00 0.00 0.00 79 1019.4
20260506135438 13 240 3.2 8.0 0.00 0.00 0.00 79 1019.5
20260506134937 13 240 3.2 8.0 0.00 0.00 0.00 79 1019.4
20260506134437 13 257 3.2 6.4 0.00 0.00 0.00 79 1019.4
20260506133936 13 238 3.2 8.0 0.00 0.00 0.00 79 1019.4
20260506133435 13 235 4.8 8.0 0.00 0.00 0.00 79 1019.3
20260506132937 13 242 3.2 8.0 0.00 0.00 0.00 80 1019.3
20260506132658 13 244 3.2 8.0 0.00 0.00 0.00 79 1019.2
20260506131933 13 248 3.2 6.4 0.00 0.00 0.00 80 1019.1
20260506131434 13 254 3.2 6.4 0.00 0.00 0.00 80 1019.1
20260506130933 13 256 1.6 6.4 0.00 0.00 0.00 80 1019.1
20260506130432 13 306 0.0 3.2 0.00 0.00 0.00 80 1019.0
20260506125930 13 307 0.0 3.2 0.00 0.00 0.00 80 1019.0
20260506125427 13 307 0.0 3.2 0.00 0.00 0.00 80 1019.0
20260506124927 13 307 1.6 4.8 0.00 0.00 0.00 80 1019.0
20260506124646 13 308 0.0 4.8 0.00 0.00 0.00 80 1019.0
20260506123923 13 308 0.0 4.8 0.00 0.00 0.00 80 1019.0
20260506123421 13 308 0.0 0.0 0.00 0.00 0.00 80 1018.9
20260506122922 13 308 0.0 0.0 0.00 0.00 0.00 80 1018.9
20260506122419 13 308 0.0 1.6 0.00 0.00 0.00 80 1018.9
20260506121918 13 308 0.0 1.6 0.00 0.00 0.00 80 1018.9
20260506121418 13 308 0.0 1.6 0.00 0.00 0.00 80 1018.9
20260506120918 13 308 0.0 0.0 0.00 0.00 0.00 80 1018.9
20260506120417 13 308 0.0 1.6 0.00 0.00 0.00 81 1018.9
20260506120136 13 308 0.0 1.6 0.00 0.00 0.00 81 1018.8
20260506115413 13 308 0.0 1.6 0.00 0.00 0.00 81 1018.8
20260506115136 13 308 0.0 1.6 0.00 0.00 0.00 81 1018.7
20260506114410 13 308 0.0 3.2 0.00 0.00 0.00 81 1018.7
20260506113908 13 308 0.0 3.2 0.00 0.00 0.00 81 1018.7
20260506113406 13 308 0.0 1.6 0.00 0.00 0.00 81 1018.6
20260506112907 13 308 0.0 1.6 0.00 0.00 0.00 81 1018.5
20260506112406 13 308 0.0 1.6 0.00 0.00 0.00 81 1018.5
20260506111905 13 308 0.0 1.6 0.00 0.00 0.00 81 1018.4
20260506111404 13 308 0.0 1.6 0.00 0.00 0.00 81 1018.4
20260506110903 13 308 0.0 0.0 0.00 0.00 0.00 81 1018.3
20260506110632 13 308 0.0 1.6 0.00 0.00 0.00 81 1018.3
20260506105859 13 308 0.0 3.2 0.00 0.00 0.00 81 1018.2
20260506105400 13 308 0.0 3.2 0.00 0.03 0.00 81 1018.3
20260506104859 13 308 0.0 1.6 0.00 0.03 0.00 81 1018.2
20260506104353 13 308 0.0 3.2 0.00 0.03 0.00 81 1018.2
20260506103850 13 309 1.6 3.2 0.00 0.03 0.00 81 1018.2
20260506103350 13 309 1.6 3.2 0.00 0.03 0.00 81 1018.1
20260506102850 13 315 0.0 3.2 0.00 0.03 0.00 81 1018.2
20260506102350 13 315 0.0 3.2 0.00 0.03 0.00 81 1018.1
20260506101849 13 316 0.0 1.6 0.00 0.05 0.00 81 1018.1
20260506101348 13 315 0.0 3.2 0.00 0.05 0.00 81 1018.0
20260506100847 13 316 1.6 3.2 0.00 0.05 0.00 81 1018.1
20260506100345 13 316 1.6 3.2 0.00 0.05 0.00 81 1018.1
20260506095846 13 329 0.0 3.2 0.00 0.05 0.00 81 1018.0
20260506095346 13 330 0.0 1.6 0.00 0.05 0.00 81 1018.0
20260506094840 13 330 0.0 1.6 0.00 0.08 0.00 81 1018.0
20260506094555 13 330 0.0 1.6 0.00 0.08 0.00 81 1017.9
20260506093836 13 330 0.0 3.2 0.00 0.10 0.00 81 1018.0
20260506093336 13 330 0.0 3.2 0.00 0.13 0.00 81 1017.9
20260506092834 13 330 0.0 0.0 0.00 0.13 0.00 81 1017.9
20260506092332 13 330 0.0 1.6 0.00 0.13 0.00 81 1017.9
20260506091832 13 330 0.0 1.6 0.00 0.13 0.00 81 1018.0
20260506091822 13 330 0.0 1.6 0.00 0.13 0.00 81 1017.9
20260506090829 13 330 0.0 1.6 0.00 0.13 0.00 81 1018.0
20260506090329 13 330 0.0 0.0 0.00 0.15 0.00 81 1018.1
20260506085829 13 330 0.0 1.6 0.00 0.15 0.00 81 1018.0
20260506085329 13 330 0.0 3.2 0.00 0.15 0.00 81 1018.1
20260506084825 13 330 0.0 3.2 0.00 0.15 0.00 81 1018.1
20260506084549 13 330 0.0 3.2 0.00 0.15 0.00 80 1018.1
20260506083823 12 330 0.0 3.2 0.00 0.15 0.00 80 1018.1
20260506083322 12 330 0.0 1.6 0.00 0.15 0.00 80 1018.1
20260506083045 12 330 1.6 4.8 0.00 0.15 0.00 80 1018.1
20260506082320 12 330 1.6 4.8 0.00 0.15 0.00 80 1018.0
20260506081820 12 329 0.0 3.2 0.00 0.15 0.00 80 1018.0
20260506081316 12 329 1.6 6.4 0.00 0.15 0.00 80 1017.9
20260506080814 12 329 1.6 6.4 0.00 0.15 0.00 79 1017.9
20260506080321 12 272 1.6 4.8 0.00 0.15 0.00 79 1017.9
20260506073302 13 269 0.0 3.2 0.00 0.15 0.00 77 1017.6
20260506072800 13 269 0.0 3.2 0.00 0.15 0.00 77 1017.7
20260506072523 13 274 1.6 6.4 0.00 0.15 0.00 77 1017.6
20260506071756 13 274 1.6 6.4 0.00 0.15 0.00 77 1017.6
20260506071529 13 275 1.6 6.4 0.00 0.15 0.00 77 1017.6
20260506070755 13 275 1.6 6.4 0.00 0.15 0.00 77 1017.5
20260506070255 13 285 1.6 4.8 0.00 0.15 0.00 77 1017.5
20260506062254 13 261 1.6 4.8 0.00 0.18 0.18 75 1017.2
20260506061753 13 259 1.6 4.8 0.00 0.18 0.18 75 1017.2
20260506061252 13 259 1.6 4.8 0.00 0.18 0.18 75 1017.1
20260506060751 14 258 1.6 4.8 0.00 0.18 0.18 74 1017.1
20260506060252 14 258 1.6 4.8 0.00 0.18 0.18 74 1017.0
20260506051235 15 255 0.0 3.2 0.00 0.18 0.18 71 1016.6
20260506050733 15 255 0.0 3.2 0.00 0.18 0.18 71 1016.5
20260506050232 15 255 0.0 3.2 0.00 0.18 0.18 71 1016.5
20260506044726 15 256 0.0 3.2 0.00 0.18 0.18 70 1016.4
20260506044226 15 256 0.0 3.2 0.00 0.18 0.18 70 1016.4
20260506043721 16 256 1.6 6.4 0.00 0.18 0.18 70 1016.3
20260506043220 16 256 4.8 6.4 0.00 0.18 0.18 70 1016.2
20260506042719 16 245 4.8 11.3 0.00 0.18 0.18 70 1016.0
20260506042216 16 247 4.8 11.3 0.00 0.18 0.18 69 1016.0
20260506041716 16 242 4.8 11.3 0.00 0.18 0.18 69 1015.9
20260506041212 16 245 6.4 11.3 0.00 0.18 0.18 69 1015.7
20260506040936 16 250 6.4 12.9 0.00 0.18 0.18 69 1015.7
20260506040210 16 243 6.4 12.9 0.00 0.18 0.18 69 1015.7
20260506035709 16 234 4.8 11.3 0.00 0.18 0.18 69 1015.8
20260506035430 16 244 4.8 11.3 0.00 0.18 0.18 69 1015.8
20260506034708 16 235 4.8 11.3 0.00 0.18 0.18 69 1015.7
20260506034208 16 241 6.4 11.3 0.00 0.18 0.18 69 1015.7
20260506033708 16 238 4.8 9.7 0.00 0.18 0.18 68 1015.7
20260506033206 16 232 4.8 11.3 0.00 0.18 0.18 68 1015.6
20260506032705 16 236 4.8 11.3 0.00 0.18 0.18 68 1015.5
20260506032207 16 247 6.4 12.9 0.00 0.18 0.18 68 1015.4
20260506031705 17 243 4.8 12.9 0.00 0.18 0.18 68 1015.4
20260506031203 17 258 4.8 12.9 0.00 0.18 0.18 68 1015.3
20260506030655 17 237 4.8 12.9 0.00 0.18 0.18 67 1015.3
20260506030154 17 240 4.8 11.3 0.00 0.18 0.18 67 1015.2
20260506025921 17 263 4.8 11.3 0.00 0.18 0.18 67 1015.3
20260506025152 17 232 4.8 11.3 0.00 0.18 0.18 67 1015.2
20260506024914 17 267 4.8 11.3 0.00 0.18 0.18 67 1015.1
20260506024150 17 232 4.8 12.9 0.00 0.18 0.18 67 1015.1
20260506023649 17 268 4.8 12.9 0.00 0.18 0.18 67 1015.1
20260506023150 17 240 4.8 9.7 0.00 0.18 0.18 67 1015.0
20260506022650 17 281 4.8 9.7 0.00 0.18 0.18 66 1015.0
20260506022148 17 252 4.8 9.7 0.00 0.18 0.18 66 1014.9
20260506021646 17 219 4.8 8.0 0.00 0.18 0.18 66 1014.9
20260506021144 17 230 4.8 11.3 0.00 0.18 0.18 66 1014.9
20260506020641 17 240 6.4 14.5 0.00 0.18 0.18 66 1014.8
20260506020142 18 238 6.4 14.5 0.00 0.18 0.18 66 1014.8
20260506015642 18 211 6.4 12.9 0.00 0.18 0.18 66 1014.7
20260506015401 18 225 6.4 12.9 0.00 0.18 0.18 66 1014.7
20260506014634 18 248 6.4 12.9 0.00 0.18 0.18 66 1014.7
20260506014134 18 219 4.8 11.3 0.00 0.18 0.18 66 1014.6
20260506013634 18 220 4.8 11.3 0.00 0.18 0.18 66 1014.7
20260506013135 18 194 4.8 8.0 0.00 0.18 0.18 66 1014.7
20260506012632 18 231 3.2 8.0 0.00 0.18 0.18 66 1014.7
20260506012125 18 213 3.2 6.4 0.00 0.18 0.18 65 1014.7
20260506011627 18 227 3.2 8.0 0.00 0.18 0.18 65 1014.6
20260506011124 18 205 3.2 8.0 0.00 0.18 0.18 65 1014.6
20260506010845 18 211 3.2 8.0 0.00 0.18 0.18 65 1014.7
20260506010124 18 193 4.8 11.3 0.00 0.18 0.18 65 1014.7
20260506005621 18 198 4.8 12.9 0.00 0.18 0.18 65 1014.6
20260506005123 18 224 4.8 12.9 0.00 0.18 0.18 66 1014.6
20260506004620 18 206 4.8 12.9 0.00 0.18 0.18 66 1014.6
20260506004119 18 216 4.8 12.9 0.00 0.18 0.18 66 1014.6
20260506003611 18 205 4.8 11.3 0.00 0.18 0.18 66 1014.6
20260506003111 18 200 4.8 12.9 0.00 0.18 0.18 66 1014.6
20260506002608 18 223 4.8 12.9 0.00 0.18 0.18 66 1014.6
20260506002325 18 225 4.8 11.3 0.00 0.18 0.18 66 1014.5
20260506001607 18 228 4.8 11.3 0.00 0.18 0.18 65 1014.5
20260506001105 18 241 6.4 12.9 0.00 0.18 0.18 65 1014.5
20260506000604 18 270 6.4 12.9 0.00 0.18 0.18 65 1014.5
20260506000101 18 242 6.4 12.9 0.00 0.18 0.18 65 1014.5
20260505235559 18 234 6.4 12.9 0.00 0.18 0.18 65 1014.5
20260505235059 18 246 4.8 12.9 0.00 0.18 0.18 65 1014.5
20260505234600 18 282 3.2 9.7 0.00 0.18 0.18 65 1014.5
20260505234059 18 250 3.2 8.0 0.00 0.18 0.18 65 1014.5
20260505233831 18 232 3.2 8.0 0.00 0.18 0.18 65 1014.5
20260505233050 18 233 3.2 8.0 0.00 0.18 0.18 65 1014.4
20260505232550 18 195 3.2 8.0 0.00 0.18 0.18 65 1014.5
20260505232050 18 169 3.2 8.0 0.00 0.18 0.18 66 1014.4
20260505231550 18 270 1.6 6.4 0.00 0.18 0.18 65 1014.5
20260505231049 18 274 3.2 11.3 0.00 0.18 0.18 65 1014.5
20260505230809 18 273 4.8 11.3 0.00 0.18 0.18 65 1014.5
20260505230049 18 279 3.2 11.3 0.00 0.18 0.18 65 1014.5
20260505225549 18 276 1.6 6.4 0.00 0.18 0.18 66 1014.6
20260505225049 18 274 3.2 6.4 0.00 0.18 0.18 66 1014.6
20260505224547 18 277 3.2 6.4 0.00 0.18 0.18 65 1014.6
20260505224048 18 271 3.2 8.0 0.00 0.18 0.18 66 1014.6
20260505223547 18 279 4.8 9.7 0.00 0.18 0.18 66 1014.6
20260505223044 18 246 4.8 11.3 0.00 0.18 0.18 66 1014.7
20260505222527 18 223 4.8 11.3 0.00 0.18 0.18 66 1014.7
20260505222024 18 211 6.4 11.3 0.00 0.18 0.18 66 1014.7
20260505221525 18 243 6.4 14.5 0.00 0.18 0.18 66 1014.8
20260505221021 18 242 8.0 16.1 0.00 0.18 0.18 66 1014.8
20260505220522 18 227 8.0 16.1 0.00 0.18 0.18 66 1014.8
20260505220021 18 240 8.0 16.1 0.00 0.18 0.18 65 1014.8
20260505215521 18 225 6.4 14.5 0.00 0.18 0.18 66 1014.9
20260505215022 18 257 6.4 14.5 0.00 0.18 0.18 66 1014.8
20260505214519 18 311 4.8 12.9 0.00 0.18 0.18 66 1014.8
20260505214018 18 235 4.8 12.9 0.00 0.18 0.18 66 1014.9
20260505213517 18 229 3.2 9.7 0.00 0.18 0.18 64 1014.9
20260505213019 18 217 3.2 12.9 0.00 0.18 0.18 66 1014.9
20260505212956 18 236 4.8 12.9 0.00 0.18 0.18 66 1015.0
20260505212014 18 264 6.4 12.9 0.00 0.18 0.18 67 1015.0
20260505211514 17 236 6.4 12.9 0.00 0.18 0.18 69 1015.0
20260505211011 17 217 6.4 14.5 0.00 0.18 0.18 68 1015.1
20260505210512 17 261 6.4 14.5 0.00 0.18 0.18 68 1015.1
20260505210011 17 264 4.8 12.9 0.00 0.18 0.18 68 1015.0
20260505205511 17 222 4.8 11.3 0.00 0.18 0.18 68 1015.1
20260505205012 18 251 4.8 11.3 0.00 0.18 0.18 68 1015.1
20260505204509 18 267 3.2 11.3 0.00 0.18 0.18 68 1015.1
20260505204009 18 288 3.2 6.4 0.00 0.18 0.18 67 1015.1
20260505203507 18 329 3.2 8.0 0.00 0.18 0.18 67 1015.2
20260505202953 18 315 3.2 8.0 0.00 0.18 0.18 67 1015.2
20260505202452 18 317 4.8 8.0 0.00 0.18 0.18 66 1015.2
20260505201941 18 315 6.4 12.9 0.00 0.18 0.18 66 1015.2
20260505201439 18 324 3.2 12.9 0.00 0.18 0.18 66 1015.2
20260505200939 18 294 3.2 11.3 0.00 0.18 0.18 66 1015.2
20260505200916 18 292 4.8 12.9 0.00 0.18 0.18 66 1015.2
20260505195938 18 242 4.8 12.9 0.00 0.18 0.18 66 1015.1
20260505195440 18 245 4.8 11.3 0.00 0.18 0.18 67 1015.2
20260505195159 18 292 4.8 11.3 0.00 0.18 0.18 65 1015.2
20260505194437 18 299 4.8 11.3 0.00 0.18 0.18 68 1015.3
20260505193934 18 275 4.8 12.9 0.00 0.18 0.18 69 1015.2
20260505193433 17 232 6.4 14.5 0.00 0.18 0.18 70 1015.3
20260505192931 17 257 6.4 14.5 0.00 0.18 0.18 71 1015.3
20260505192427 16 269 8.0 14.5 0.00 0.18 0.18 72 1015.4
20260505191928 16 302 8.0 16.1 0.00 0.18 0.18 72 1015.3
20260505191423 16 317 6.4 16.1 0.00 0.18 0.18 73 1015.2
20260505191143 16 300 6.4 14.5 0.00 0.18 0.18 74 1015.2
20260505190421 16 277 6.4 16.1 0.00 0.18 0.18 74 1015.2
20260505185921 16 261 8.0 16.1 0.00 0.18 0.18 74 1015.3
20260505185421 16 267 8.0 16.1 0.00 0.18 0.18 73 1015.3
20260505184925 16 279 9.7 20.9 0.00 0.18 0.18 74 1015.3
20260505184639 16 304 9.7 20.9 0.00 0.18 0.18 75 1015.2
20260505184143 16 257 8.0 16.1 0.00 0.18 0.18 74 1015.2
20260505183417 15 255 8.0 16.1 0.00 0.18 0.18 75 1015.2
20260505182917 15 310 8.0 16.1 0.00 0.18 0.18 75 1015.2
20260505182906 15 299 8.0 16.1 0.00 0.18 0.18 76 1015.2
20260505181917 15 275 8.0 16.1 0.00 0.18 0.18 76 1015.1
20260505181642 15 351 8.0 19.3 0.00 0.18 0.18 77 1015.1
20260505180916 15 300 8.0 19.3 0.00 0.18 0.18 77 1015.2
20260505180415 15 312 6.4 16.1 0.00 0.18 0.18 78 1015.1